[[{"header":{"parameterUnit":"m.s-1","parameterCategory":1,"la1":30.2991,"la2":30.254,"lo1":-89.0895,"lo2":-89.0444,"dy":0.0017,"dx":0.0017,"nx":28,"ny":28,"refTime":"2024-03-30T21:00:00:Z","depth":0,"parameterNumber":2,"parameterNumberName":"U-component_of_WINDS"},"data":[0,0,0,0,0,0,0,0,0,0,0,0,0,0,0,0,0,0,0,0,0,0,0,0,0,0,0,0,0,0,0,0,0,0,0,0,0,0,0,0,0,0,0,0,0,0,0,0,0,0,0,0,0,0,0,0,0,0,-0.79,-0.79,0,-0.7848,-0.7848,-0.7847,-0.7828,-0.7828,-0.7828,-0.7829,-0.7774,-0.7772,-0.777,0,0,0,0,0,0,0,0,0,0,0,0,0,-0.7982,-0.7981,-0.79,-0.79,-0.7899,-0.7848,-0.7847,-0.7847,-0.7828,-0.7828,-0.7828,-0.7829,-0.7774,-0.7772,-0.777,0,0,0,0,0,0,0,0,0,0,0,0,0,-0.794,-0.798,-0.79,-0.7884,-0.7882,-0.7848,-0.7847,-0.7847,-0.7828,-0.7828,-0.7829,-0.7829,-0.7775,-0.7772,-0.777,-0.7749,0,0,-0.7763,-0.7761,0,0,0,0,0,0,0,0,-0.7942,-0.7937,-0.7887,-0.7885,-0.7882,-0.7845,-0.7856,-0.7814,-0.7828,-0.7848,-0.7829,-0.7829,-0.7797,-0.7793,-0.7782,-0.7747,-0.7744,-0.7762,-0.7761,-0.776,-0.7759,0,0,0,0,0,0,0,-0.7945,-0.7939,-0.788,-0.7886,-0.7883,-0.7878,-0.7872,-0.7848,-0.7822,-0.7846,-0.7845,-0.7839,-0.7796,-0.7785,-0.7781,-0.7744,-0.7762,-0.776,-0.7759,-0.7758,-0.7688,-0.7687,0,0,0,0,0,0,-0.7951,-0.7942,-0.7881,-0.7878,-0.7914,-0.7876,-0.787,-0.7857,-0.7822,-0.7817,-0.7839,-0.7838,-0.7789,-0.7784,-0.7779,-0.7752,-0.776,-0.7758,-0.7756,-0.7688,-0.7687,-0.7687,0,0,0,0,0,0,-0.7953,-0.7946,-0.7883,-0.7909,-0.7901,-0.7875,-0.786,-0.7855,-0.7844,-0.7816,-0.7811,-0.7833,-0.7789,-0.7782,-0.7757,-0.775,-0.7756,-0.7754,-0.7688,-0.7688,-0.7687,-0.7698,0,0,0,0,0,0,-0.7955,-0.7947,-0.7939,-0.7909,-0.79,-0.7863,-0.7859,-0.7854,-0.784,-0.7839,-0.7809,-0.7804,-0.7789,-0.7761,-0.7754,-0.7746,-0.7752,-0.7689,-0.7688,-0.7687,-0.7698,-0.7697,-0.7697,0,0,0,0,0,-0.7958,-0.7944,-0.7939,-0.7932,-0.789,-0.7862,-0.7857,-0.784,-0.784,-0.7831,-0.7813,-0.7805,-0.7752,-0.7758,-0.7751,-0.7742,-0.7689,-0.7688,-0.7687,-0.7698,-0.7698,-0.7697,0,0,0,0,0,0,-0.7973,-0.794,-0.7934,-0.7909,-0.7889,-0.7859,-0.7848,-0.784,-0.7818,-0.7818,-0.7797,-0.7791,-0.7766,-0.7752,-0.776,-0.772,-0.772,-0.7717,-0.773,-0.773,-0.7729,-0.7733,-0.775,0,0,0,0,0,-0.7974,-0.7955,-0.7927,-0.7908,-0.7898,-0.7875,-0.7862,-0.7851,-0.7829,-0.782,-0.78,-0.7778,-0.7756,-0.7742,-0.7721,-0.7696,-0.7688,-0.7686,-0.7686,-0.7686,-0.7684,-0.7669,-0.7667,-0.7684,-0.7684,-0.7684,0,0,-0.7975,-0.7954,-0.7943,-0.791,-0.7893,-0.7873,-0.7868,-0.7847,-0.7832,-0.7816,-0.7791,-0.7775,-0.775,-0.7724,-0.7712,-0.7711,-0.7677,-0.7685,-0.7685,-0.7683,-0.7668,-0.7666,-0.7665,-0.7683,-0.7684,-0.7684,0,0,-0.7966,-0.7949,-0.7931,-0.7914,-0.7887,-0.7872,-0.7868,-0.7839,-0.7829,-0.7803,-0.779,-0.7772,-0.7735,-0.7717,-0.7703,-0.7687,-0.7678,-0.768,-0.7678,-0.7664,-0.7663,-0.7661,-0.7655,-0.7653,-0.7679,-0.7679,-0.7679,0,-0.797,-0.794,-0.7923,-0.7902,-0.7888,-0.7873,-0.7854,-0.7838,-0.7806,-0.7796,-0.7796,-0.7749,-0.7731,-0.7701,-0.7697,-0.7686,-0.768,-0.7683,-0.7664,-0.7663,-0.7661,-0.7655,-0.7652,-0.7679,-0.7679,-0.7679,-0.7679,0,-0.7946,-0.7925,-0.7914,-0.7884,-0.7868,-0.7849,-0.7827,-0.7813,-0.7803,-0.7788,-0.7761,-0.7739,-0.7712,-0.7704,-0.7694,-0.7672,-0.7672,-0.7669,-0.7668,-0.766,-0.7654,-0.7651,-0.768,-0.7679,-0.7679,-0.7679,0,0,-0.7945,-0.7905,-0.7901,-0.7887,-0.7857,-0.784,-0.782,-0.7794,-0.7782,-0.776,-0.7742,-0.7711,-0.7707,-0.7692,-0.7679,-0.7667,-0.7654,-0.7664,-0.7663,-0.7662,-0.7628,-0.763,-0.7628,-0.7648,-0.7648,-0.7647,-0.7629,0,-0.7932,-0.7895,-0.7878,-0.7849,-0.7829,-0.7814,-0.7797,-0.7776,-0.7761,-0.7741,-0.7725,-0.7703,-0.77,-0.769,-0.7677,-0.7658,-0.7647,-0.766,-0.763,-0.763,-0.7637,-0.7624,-0.7627,-0.7611,-0.7627,-0.7626,-0.7626,0,-0.7911,-0.789,-0.7858,-0.783,-0.7821,-0.7805,-0.778,-0.7762,-0.7737,-0.7727,-0.771,-0.7698,-0.7675,-0.7677,-0.7645,-0.7654,-0.7641,-0.763,-0.7629,-0.7625,-0.7627,-0.7619,-0.7606,-0.7603,-0.7622,-0.7622,-0.7623,0,-0.7913,-0.7876,-0.7852,-0.784,-0.7807,-0.7796,-0.7781,-0.7758,-0.7743,-0.772,-0.771,-0.7686,-0.7672,-0.7653,-0.7634,-0.7637,-0.7604,-0.7604,-0.7594,-0.7595,-0.7587,-0.7588,-0.7571,-0.758,-0.758,-0.758,-0.7581,0,-0.7899,-0.7881,-0.7852,-0.7837,-0.7816,-0.7796,-0.7775,-0.7759,-0.7738,-0.772,-0.7706,-0.7689,-0.7665,-0.7645,-0.7631,-0.7606,-0.76,-0.7591,-0.7587,-0.7591,-0.7592,-0.7582,-0.7582,-0.758,-0.758,-0.758,-0.758,0,-0.7897,-0.7878,-0.7851,-0.7821,-0.7813,-0.7798,-0.7772,-0.7757,-0.7741,-0.7718,-0.7711,-0.7686,-0.7662,-0.7642,-0.7609,-0.7599,-0.7573,-0.7569,-0.7581,-0.7579,-0.757,-0.7571,-0.7545,-0.754,-0.7554,-0.7554,-0.7554,0,-0.789,-0.7875,-0.7843,-0.783,-0.7815,-0.7794,-0.7779,-0.7759,-0.7744,-0.7715,-0.7703,-0.7677,-0.7656,-0.7617,-0.7596,-0.7571,-0.7565,-0.7558,-0.7562,-0.7566,-0.7564,-0.7565,-0.7563,-0.7558,-0.7558,-0.7558,-0.7558,0,-0.7878,-0.7869,-0.7847,-0.7822,-0.7804,-0.7784,-0.7763,-0.7753,-0.7729,-0.7712,-0.7687,-0.767,-0.7637,-0.7611,-0.7584,-0.7569,-0.7559,-0.7557,-0.7553,-0.7557,-0.7564,-0.7559,-0.758,-0.7557,-0.7557,-0.7557,-0.7557,-0.7557,-0.7872,-0.7858,-0.7833,-0.7809,-0.7791,-0.7772,-0.7756,-0.7738,-0.7717,-0.7688,-0.7678,-0.7651,-0.7627,-0.7589,-0.7574,-0.7553,-0.7551,-0.7546,-0.7545,-0.7543,-0.7544,-0.7568,-0.7548,-0.7548,-0.7548,-0.7548,-0.7548,0,-0.7859,-0.7842,-0.7821,-0.7791,-0.7772,-0.7765,-0.7741,-0.7726,-0.7703,-0.7681,-0.766,-0.7631,-0.7606,-0.7582,-0.7556,-0.7544,-0.7538,-0.7537,-0.7538,-0.7534,-0.7547,-0.7552,-0.7542,-0.7542,-0.7542,-0.7542,-0.7542,-0.7542,-0.785,-0.7825,-0.7812,-0.7778,-0.7761,-0.7735,-0.7722,-0.7704,-0.7686,-0.7654,-0.7633,-0.7618,-0.7595,-0.7567,-0.7544,-0.7537,-0.7528,-0.7528,-0.752,-0.7532,-0.7533,-0.7534,-0.7539,-0.7526,-0.7526,-0.7509,-0.7509,-0.7509]},{"header":{"parameterUnit":"m.s-1","parameterCategory":1,"la1":30.2991,"la2":30.254,"lo1":-89.0895,"lo2":-89.0444,"dy":0.0017,"dx":0.0017,"nx":28,"ny":28,"refTime":"2024-03-30T21:00:00:Z","depth":0,"parameterNumber":3,"parameterNumberName":"V-component_of_WINDS"},"data":[0,0,0,0,0,0,0,0,0,0,0,0,0,0,0,0,0,0,0,0,0,0,0,0,0,0,0,0,0,0,0,0,0,0,0,0,0,0,0,0,0,0,0,0,0,0,0,0,0,0,0,0,0,0,0,0,0,0,4.3284,4.3285,0,4.3452,4.3454,4.3456,4.3484,4.3483,4.3481,4.348,4.3645,4.365,4.3656,0,0,0,0,0,0,0,0,0,0,0,0,0,4.2981,4.2986,4.3283,4.3286,4.3288,4.3452,4.3454,4.3456,4.3485,4.3483,4.3481,4.3479,4.3643,4.365,4.3656,0,0,0,0,0,0,0,0,0,0,0,0,0,4.3127,4.2988,4.3283,4.3322,4.3327,4.3451,4.3454,4.3457,4.3485,4.3483,4.3481,4.3479,4.3641,4.3649,4.3657,4.3752,0,0,4.3683,4.3687,0,0,0,0,0,0,0,0,4.3118,4.3138,4.3314,4.3319,4.3325,4.3445,4.3408,4.3556,4.3485,4.3425,4.348,4.3478,4.3579,4.3593,4.3629,4.376,4.3767,4.3684,4.3689,4.3693,4.3695,0,0,0,0,0,0,0,4.3108,4.3131,4.335,4.3316,4.3323,4.3329,4.3347,4.3436,4.3512,4.343,4.3432,4.3452,4.3582,4.3621,4.3633,4.377,4.3684,4.3692,4.3697,4.37,4.399,4.3992,0,0,0,0,0,0,4.3092,4.3122,4.3345,4.3355,4.3215,4.3336,4.3357,4.3409,4.3511,4.3524,4.3454,4.3453,4.3607,4.3623,4.3639,4.3759,4.3693,4.3701,4.3706,4.3987,4.399,4.3993,0,0,0,0,0,0,4.3085,4.3112,4.3338,4.3239,4.3269,4.3344,4.3402,4.3413,4.3452,4.3529,4.3542,4.348,4.3606,4.3627,4.3725,4.3765,4.3705,4.3713,4.3984,4.3988,4.3992,4.4,0,0,0,0,0,0,4.3077,4.3109,4.3147,4.324,4.3274,4.3423,4.3404,4.3418,4.3467,4.3468,4.3557,4.3569,4.3606,4.3712,4.3734,4.3776,4.3719,4.3981,4.3986,4.399,4.3996,4.4003,4.4009,0,0,0,0,0,4.3066,4.314,4.3149,4.3176,4.3324,4.3425,4.3445,4.3487,4.347,4.3509,4.3559,4.3567,4.3757,4.3722,4.3746,4.3792,4.3979,4.3984,4.399,4.3993,4.4002,4.4009,0,0,0,0,0,0,4.3047,4.3153,4.3164,4.3272,4.334,4.343,4.348,4.3495,4.3567,4.3564,4.3611,4.3631,4.3727,4.3769,4.3728,4.389,4.3866,4.3877,4.386,4.3869,4.3876,4.3864,4.3726,0,0,0,0,0,4.3056,4.3132,4.322,4.3306,4.334,4.3404,4.345,4.3478,4.3549,4.3577,4.3634,4.3701,4.3776,4.3825,4.3898,4.4002,4.4022,4.4045,4.4051,4.4057,4.4066,4.4126,4.4138,4.4012,4.4012,4.4012,0,0,4.3074,4.3142,4.3186,4.3304,4.336,4.3437,4.3428,4.3509,4.3566,4.3588,4.3687,4.373,4.3808,4.3911,4.3958,4.3948,4.4105,4.4064,4.4067,4.4074,4.4133,4.4145,4.4155,4.4016,4.4015,4.4015,0,0,4.3148,4.3206,4.3286,4.3343,4.3429,4.3472,4.3491,4.358,4.3611,4.3711,4.373,4.3797,4.3925,4.3981,4.4026,4.4122,4.4133,4.4144,4.4179,4.4237,4.4247,4.4256,4.4293,4.4305,4.4153,4.4153,4.4153,0,4.3159,4.3278,4.3324,4.3406,4.3457,4.3484,4.3566,4.3617,4.3722,4.3756,4.3744,4.3907,4.3961,4.4078,4.4102,4.4137,4.416,4.4135,4.4243,4.4252,4.4261,4.4296,4.431,4.4154,4.4154,4.4154,4.4154,0,4.3288,4.337,4.3424,4.3529,4.3586,4.3666,4.3724,4.3775,4.3798,4.3841,4.3942,4.4009,4.4097,4.4126,4.4147,4.4247,4.4238,4.4233,4.421,4.4274,4.4308,4.4321,4.4156,4.4155,4.4155,4.4155,0,0,4.3355,4.3486,4.3505,4.3554,4.3652,4.3715,4.3796,4.3886,4.3931,4.4001,4.4071,4.418,4.4178,4.4228,4.4256,4.4306,4.4382,4.4296,4.4299,4.4312,4.4497,4.4502,4.4517,4.4388,4.4391,4.4393,4.4491,0,4.3441,4.3592,4.3636,4.3761,4.3838,4.3866,4.3937,4.4004,4.4046,4.4116,4.4161,4.4239,4.4229,4.426,4.4312,4.4362,4.442,4.4355,4.4453,4.4456,4.4435,4.4534,4.4539,4.4628,4.4505,4.4507,4.4509,0,4.3563,4.3641,4.3774,4.3865,4.3899,4.3962,4.405,4.4116,4.4192,4.4219,4.4278,4.4302,4.4387,4.4358,4.4476,4.4431,4.4473,4.4504,4.4508,4.452,4.4488,4.4551,4.4658,4.4672,4.4529,4.4528,4.4526,0,4.3601,4.3738,4.3837,4.3877,4.3985,4.4029,4.4076,4.415,4.4202,4.4277,4.4311,4.4393,4.4438,4.45,4.4545,4.452,4.466,4.4634,4.4685,4.4684,4.4714,4.4712,4.4832,4.4738,4.4738,4.4738,4.4737,0,4.3694,4.3775,4.3856,4.3917,4.4009,4.4059,4.4148,4.4195,4.4261,4.4331,4.4357,4.4421,4.4476,4.4547,4.4582,4.4675,4.4694,4.4718,4.4727,4.4718,4.4715,4.4747,4.4743,4.4741,4.474,4.474,4.4739,0,4.3753,4.381,4.392,4.4014,4.404,4.4103,4.4183,4.4242,4.4286,4.4374,4.4397,4.4466,4.4551,4.4602,4.4708,4.4732,4.4836,4.484,4.4811,4.4816,4.4864,4.486,4.5011,4.5034,4.4923,4.4923,4.4924,0,4.381,4.3874,4.3976,4.4026,4.4074,4.4154,4.4208,4.4259,4.4314,4.4407,4.4455,4.4543,4.4616,4.475,4.4808,4.489,4.4898,4.4946,4.4911,4.49,4.4902,4.4899,4.4906,4.4952,4.4953,4.4954,4.4954,0,4.3906,4.3932,4.401,4.41,4.4164,4.4236,4.4307,4.4346,4.4409,4.4469,4.4559,4.4615,4.4726,4.4813,4.49,4.4946,4.4961,4.4965,4.4981,4.4973,4.4955,4.4968,4.483,4.4961,4.4961,4.496,4.496,4.4959,4.3967,4.4026,4.4109,4.4196,4.4255,4.4322,4.4384,4.4437,4.4514,4.4611,4.4635,4.4729,4.4804,4.4924,4.4971,4.5044,4.5037,4.506,4.5066,4.5072,4.5074,4.4942,4.506,4.506,4.5059,4.5059,4.5059,0,4.4066,4.4121,4.4201,4.4302,4.4371,4.4382,4.4461,4.4517,4.4601,4.4671,4.4744,4.4847,4.4932,4.4997,4.5084,4.513,4.5139,4.5151,4.5149,4.516,4.5075,4.5053,4.5143,4.5143,4.5143,4.5143,4.5143,4.5143,4.4126,4.4228,4.4264,4.4396,4.4449,4.4545,4.459,4.4651,4.4708,4.4824,4.4896,4.4939,4.5007,4.5099,4.5177,4.5194,4.5225,4.5237,4.5255,4.5174,4.5165,4.5157,4.5137,4.5242,4.5242,4.5334,4.5335,4.5335]}]]